Station SAUF1 - St. Augustine, FL Image indicating link to RSS feed of recent meteorological observations for station SAUF1


Conditions at SAUF1 as of
(3:00 am EDT)
0700 GMT on 06/17/2024:
     

Click on the graph icon in the table below to see a time series plot of the last five days of that observation.

5-day plot - Wind Direction Wind Direction (WDIR):ESE ( 110 deg true )
5-day plot - Wind Speed Wind Speed (WSPD): 12 kts
5-day plot - Wind Gust Wind Gust (GST): 15 kts
5-day plot - Atmospheric Pressure Atmospheric Pressure (PRES):30.06 in
5-day plot - Pressure Tendency Pressure Tendency (PTDY):-0.02 in ( Falling )
5-day plot - Air Temperature Air Temperature (ATMP): 82.0 °F
5-day plot - Water Temperature Water Temperature (WTMP): 85.5 °F
5-day plot - Dew Point Dew Point (DEWP): 82.0 °F
5-day plot - Heat Index Heat Index (HEAT): 94.6 °F
5-day plot - Wind Speed at 10 Meters Wind Speed at 10 meters (WSPD10M): 14 kts
5-day plot - Wind Speed at 20 Meters Wind Speed at 20 meters (WSPD20M): 14 kts
5-day plot -  Wind Speed, Wind Gust and Atmospheric Pressure Combined plot of Wind Speed, Gust, and Air Pressure
Continuous Winds
TIME
(EDT)
5-day plot - Wind Direction WDIR 5-day plot - Wind Speed WSPD
3:00 amESE ( 108 deg ) 13 kts
2:50 amESE ( 108 deg ) 13 kts
2:40 amESE ( 108 deg ) 12 kts
2:30 amESE ( 112 deg ) 12 kts
2:20 amESE ( 120 deg ) 12 kts
2:10 amESE ( 120 deg ) 12 kts
 
Peak gust during the measurement hour
TIME
(EDT)
5-day plot - Gust Direction GDR 5-day plot - Gust Speed GST
2:54 amESE ( 110 deg ) 15 kts
Previous observations
TIME
(EDT)
5-day plot - Wind Direction
WDIR
 
5-day plot - Wind Speed
WSPD
kts
5-day plot - Wind Gust
GST
kts
5-day plot - Wave Height
WVHT
ft
5-day plot - Dominant Wave Period
DPD
sec
5-day plot - Average Wave Period
APD
sec
5-day plot - Mean Wave Direction
MWD
 
5-day plot - Atmospheric Pressure
PRES
in
5-day plot - Pressure Tendency
PTDY
in
5-day plot - Air Temperature
ATMP
°F
5-day plot - Water Temperature
WTMP
°F
5-day plot - Dew Point
DEWP
°F
5-day plot - Salinity
SAL
psu
5-day plot - Visibility
VIS
nmi
5-day plot - Tide (above MLLW)
TIDE
ft
2024-06-17 02:00 amESE 14 15----30.07+0.00 82.2 85.6 82.2---
2024-06-17 01:00 amESE 16 17----30.08+0.01 82.2 85.8 82.2---
2024-06-17 12:00 amESE 14 15----30.09+0.03 82.6 85.8 82.6---
2024-06-16 11:00 pmESE 14 15----30.08+0.02 82.4 86.2 82.4---
2024-06-16 10:00 pmESE 14 16----30.06+0.02 82.6 86.2 82.6---
2024-06-16 09:00 pmESE 15 17----30.06+0.01 82.6 86.4 82.6---
2024-06-16 08:00 pm E 15 17----30.06+0.01 82.8 86.5 82.8---
2024-06-16 07:00 pm E 17 18----30.04+0.00 82.9 86.9 82.9---
2024-06-16 06:00 pm E 16 18----30.05-0.01 82.9 87.4 82.9---
2024-06-16 05:00 pm E 15 17----30.04-0.03 82.9 87.6 82.9---
2024-06-16 04:00 pm E 14 15----30.05-0.04 82.9 87.6 82.9---
2024-06-16 03:00 pm E 12 14----30.06-0.03 83.1 87.6 83.1---
2024-06-16 02:00 pm E 12 13----30.07+0.00 83.1 87.4 83.1---
2024-06-16 01:00 pm E 9 11----30.09+0.02 83.1 87.1 83.1---
2024-06-16 12:00 pmENE 11 12----30.09+0.03 82.9 86.5 82.9---
2024-06-16 11:00 am E 9 10----30.08+0.04 82.9 86.0 82.9---
2024-06-16 10:00 am E 7 8----30.07+0.04 82.6 85.8 82.6---
2024-06-16 09:00 am SE 6 7----30.06+0.04 82.4 85.6 82.4---
2024-06-16 08:00 amESE 4 6----30.04+0.04 83.1 85.6 83.1---
2024-06-16 07:00 am- 0 0----30.03+0.03 81.0 85.6 81.0---
2024-06-16 06:00 am NW 3 3----30.02+0.03 77.5 85.6 77.5---
2024-06-16 05:00 am W 5 5----30.00+0.01 77.7 85.8 77.7---
2024-06-16 04:00 am SE 6 7----30.00+0.00 82.0 85.6 82.0---
2024-06-16 03:00 amSSE 7 8----29.99-0.01 82.0 85.6 82.0---